Regional Weather Roundup
Issued by NWS

Home | Current Version | Previous Version | Graphics & Text | Print | Product List | Glossary On
Versions: 1 2 3 4 5 6 7 8 9 10 11 12 13 14 15 16 17 18 19 20 21 22 23 24 25 26 27 28 29 30 31 32 33 34 35 36 37 38 39 40 41 42 43 44 45 46 47 48 49 50
000
ASUS43 KLOT 242000
RWRIL

ILLINOIS REGIONAL WEATHER ROUNDUP
NATIONAL WEATHER SERVICE CHICAGO/ROMEOVILLE IL
300 PM CDT SUN MAY 24 2015

NOTE: "FAIR" INDICATES FEW OR NO CLOUDS BELOW 12,000 FEET WITH NO
SIGNIFICANT WEATHER AND/OR OBSTRUCTIONS TO VISIBILITY.

* THESE STATIONS ARE NOT UNDER NWS QUALITY CONTROL. THEY ALSO MAY NOT
  REPORT WEATHER SUCH AS PRECIPITATION OR FOG.

ILZ001-002-007-009-015-016-024-242100-
NORTHWEST ILLINOIS

CITY           SKY/WX    TMP DP  RH WIND       PRES   REMARKS
MOLINE         PTSUNNY   77  67  71 S10G18    29.90F
STERLING*      CLOUDY    75  64  69 SE13G21   29.95F
$$

ILZ003-004-008-010-011-017-018-242100-
NORTH CENTRAL ILLINOIS

CITY           SKY/WX    TMP DP  RH WIND       PRES   REMARKS
ROCKFORD       LGT RAIN  68  58  70 SE7       30.02S
$$

ILZ005-006-012>014-019>023-242100-
NORTHEAST ILLINOIS

CITY           SKY/WX    TMP DP  RH WIND       PRES   REMARKS
CHICAGO-OHARE  CLOUDY    70  53  54 E12       30.02F
CHICAGO-MIDWAY CLOUDY    74  56  53 E9        30.02F
AURORA         RAIN      73  59  61 E10       30.01F
WAUKEGAN       CLOUDY    60  49  66 E10       30.05F
DUPAGE AIRPORT CLOUDY    74  56  53 E12       30.00F
WHEELING       CLOUDY    66  51  58 E13G18    30.05F
NORTHERLY ISL    N/A     59  51  75 NE5         N/A
$$

LMZ740>746-242100-
SOUTHERN LAKE MICHIGAN

STATION/POSITION SKY/WX   TEMP    WIND        PRES    VSBY  WAVE
                          AIR SEA DIR/SP/G                  HT/PER
                          (F)     (DEG/KT/KT) (MB)    (MI)  (FT/S)
SOUTHERN BUOY              48 38   70/ 12/ 12 1019.4F         0
HARRISON CRIB              57      80/ 18/ 19   N/A
BURNHAM HARBOR             59      40/  6/  7   N/A
CALUMET HARBOR             61      70/  5/  7   N/A
BURNS HARBOR               77     100/ 11/ 15 1018.6F
MICHIGAN CITY              76      90/  7/ 10   N/A
MICHIGAN CITY 6N           67 54  100/  6/  6   N/A           0
ST. JOSEPH                 68 56  150/  6/  8   N/A           0
$$

ILZ025>027-034>036-040-047-049-050-058-095>099-242100-
WEST-CENTRAL ILLINOIS

CITY           SKY/WX    TMP DP  RH WIND       PRES   REMARKS
QUINCY         PTSUNNY   78  67  68 SW5       29.89F HX  80
$$

ILZ028>032-037-038-041>044-048-051>054-059>061-242100-
CENTRAL ILLINOIS

CITY           SKY/WX    TMP DP  RH WIND       PRES   REMARKS
DECATUR        PTSUNNY   83  64  52 S17G25    30.00F HX  84
PEORIA         PTSUNNY   80  68  66 S13       29.95F HX  83
SPRINGFIELD    PTSUNNY   86  63  45 S23G31    29.96F HX  87
TAYLORVILLE    NOT AVBL
$$

ILZ033-039-045-046-055>057-062-063-242100-
EAST-CENTRAL ILLINOIS

CITY           SKY/WX    TMP DP  RH WIND       PRES   REMARKS
CHAMPAIGN      PTSUNNY   87  61  41 S23G31    30.03F HX  87
MATTOON        PTSUNNY   83  64  52 S15G22    30.04F HX  84
$$

ILZ079-100>102-242100-
SOUTHWEST ILLINOIS

CITY           SKY/WX    TMP DP  RH WIND       PRES   REMARKS
BELLEVILLE     PTSUNNY   83  67  59 S20G29    29.96F HX  86
CAHOKIA*       PTSUNNY   85  62  46 S16G28    29.95F HX  85
$$

ILZ064>066-069>071-074>076-080>082-084>086-088>090-092>094-242100-
SOUTH-CENTRAL ILLINOIS

CITY           SKY/WX    TMP DP  RH WIND       PRES   REMARKS
CARBONDALE     PTSUNNY   85  64  49 S20G25    30.01F HX  86
MT. VERNON     PTSUNNY   82  64  54 S13G23    30.04F HX  84
$$

ILZ067-068-072-073-078-083-087-091-242100-
SOUTHEAST ILLINOIS

CITY           SKY/WX    TMP DP  RH WIND       PRES   REMARKS
LAWRENCEVILLE  PTSUNNY   83  62  49 S18G24    30.08F HX  84
$$

ABBREVIATIONS USED IN REMARKS
   TC - TEMPERATURE IN CELSIUS
  WCI - WIND CHILL INDEX
   HX - HEAT INDEX
  VSB - VISIBILITY
$$




USA.gov is the U.S. government's official web portal to all federal, state and local government web resources and services.